Location: G�kdere
(37.0328°N, 30.9000°E)
Time: 05:42:20
(UTC+00:00)

Cosmos 1844 - Pass Details

Date: 03 March 2021
Orbit: 822 x 868 km, 70.9° (Epoch: 20 April)

Event Time Altitude Azimuth Distance (km) Brightness Sun altitude
Rises 16:54:03 0° 347° (NNW) 3,452 7.1 -13.1°
Reaches altitude 10° 16:56:47 10° 357° (N) 2,506 6.2 -13.6°
Maximum altitude 17:01:56 33° 60° (ENE) 1,413 4.4 -14.6°
Enters shadow 17:04:39 22° 105° (ESE) 1,781 4.8 -15.2°
